When you browse on this site, cookies collect data to enhance your experience and personalize the content and advertising you see.
Visit our Privacy Policy to learn more. By continuing to use the site, you agree to this use of cookies and data.

Météo par heure à Vysockoe

Ce jour, 7 Juillet, Mardi

Heure Température Précipitation Vent Pression Humidité
00:00 +21°C° 0 mm 1 m/s 737 mmHg 85%
01:00 +20°C° 0 mm 1 m/s 737 mmHg 87%
02:00 +20°C° 0 mm 1 m/s 737 mmHg 88%
03:00 +19°C° 0 mm 2 m/s 737 mmHg 92%
04:00 +20°C° 0 mm 2 m/s 736 mmHg 92%
05:00 +20°C° 0 mm 2 m/s 736 mmHg 92%
06:00 +21°C° 0 mm 2 m/s 736 mmHg 93%
07:00 +22°C° 0 mm 3 m/s 736 mmHg 90%
08:00 +25°C° 0 mm 3 m/s 736 mmHg 87%
09:00 +27°C° 0 mm 3 m/s 736 mmHg 83%
10:00 +28°C° 0.9 mm 3 m/s 736 mmHg 77%
11:00 +29°C° 0.9 mm 3 m/s 736 mmHg 71%
12:00 +31°C° 0.9 mm 3 m/s 736 mmHg 65%
13:00 +32°C° 0.5 mm 4 m/s 735 mmHg 66%
14:00 +32°C° 0.5 mm 4 m/s 735 mmHg 68%
15:00 +32°C° 0.5 mm 5 m/s 735 mmHg 70%
16:00 +30°C° 0.6 mm 4 m/s 735 mmHg 73%
17:00 +30°C° 0.6 mm 4 m/s 734 mmHg 76%
18:00 +29°C° 0.6 mm 4 m/s 734 mmHg 79%
19:00 +28°C° 0.1 mm 4 m/s 733 mmHg 81%
20:00 +27°C° 0.1 mm 4 m/s 733 mmHg 83%
21:00 +25°C° 0.1 mm 4 m/s 733 mmHg 84%
22:00 +25°C° 0 mm 4 m/s 733 mmHg 81%
23:00 +23°C° 0 mm 4 m/s 733 mmHg 78%

Demain, 8 Juillet, Mercredi

Heure Température Précipitation Vent Pression Humidité
00:00 +22°C° 0 mm 4 m/s 732 mmHg 75%
01:00 +21°C° 0 mm 4 m/s 732 mmHg 75%
02:00 +21°C° 0 mm 3 m/s 732 mmHg 75%
03:00 +20°C° 0 mm 3 m/s 732 mmHg 76%
04:00 +21°C° 0 mm 3 m/s 732 mmHg 77%
05:00 +21°C° 0 mm 3 m/s 732 mmHg 79%
06:00 +21°C° 0 mm 3 m/s 731 mmHg 81%
07:00 +22°C° 0 mm 3 m/s 731 mmHg 79%
08:00 +24°C° 0 mm 3 m/s 732 mmHg 78%
09:00 +25°C° 0 mm 3 m/s 732 mmHg 77%
10:00 +26°C° 0 mm 3 m/s 732 mmHg 75%
11:00 +27°C° 0 mm 3 m/s 732 mmHg 72%
12:00 +28°C° 0 mm 3 m/s 733 mmHg 70%
13:00 +27°C° 0.2 mm 3 m/s 733 mmHg 73%
14:00 +27°C° 0.2 mm 3 m/s 733 mmHg 76%
15:00 +26°C° 0.2 mm 2 m/s 733 mmHg 79%
16:00 +25°C° 2.7 mm 3 m/s 733 mmHg 84%
17:00 +22°C° 2.7 mm 4 m/s 734 mmHg 90%
18:00 +20°C° 2.7 mm 5 m/s 734 mmHg 95%
19:00 +20°C° 1.9 mm 5 m/s 734 mmHg 95%
20:00 +19°C° 1.9 mm 5 m/s 734 mmHg 96%
21:00 +19°C° 1.9 mm 4 m/s 735 mmHg 97%
22:00 +18°C° 0.7 mm 4 m/s 735 mmHg 96%
23:00 +17°C° 0.7 mm 5 m/s 735 mmHg 96%

Après-demain, 9 Juillet, Jeudi

Heure Température Précipitation Vent Pression Humidité
00:00 +16°C° 0.7 mm 5 m/s 735 mmHg 95%
01:00 +15°C° 0.2 mm 5 m/s 736 mmHg 95%
02:00 +15°C° 0.2 mm 5 m/s 736 mmHg 94%
03:00 +14°C° 0.2 mm 5 m/s 736 mmHg 94%
04:00 +14°C° 0 mm 5 m/s 736 mmHg 94%
05:00 +14°C° 0 mm 5 m/s 736 mmHg 93%
06:00 +14°C° 0 mm 5 m/s 736 mmHg 93%
07:00 +14°C° 0 mm 5 m/s 736 mmHg 91%
08:00 +15°C° 0 mm 5 m/s 737 mmHg 88%
09:00 +15°C° 0 mm 5 m/s 737 mmHg 86%
10:00 +16°C° 0 mm 5 m/s 737 mmHg 81%
11:00 +19°C° 0 mm 5 m/s 738 mmHg 76%
12:00 +20°C° 0 mm 5 m/s 738 mmHg 71%
13:00 +21°C° 0 mm 5 m/s 738 mmHg 70%
14:00 +21°C° 0 mm 5 m/s 739 mmHg 69%
15:00 +22°C° 0 mm 4 m/s 739 mmHg 67%
16:00 +21°C° 0.1 mm 4 m/s 739 mmHg 69%
17:00 +21°C° 0.1 mm 4 m/s 739 mmHg 71%
18:00 +21°C° 0.1 mm 3 m/s 739 mmHg 73%
19:00 +19°C° 0 mm 3 m/s 740 mmHg 77%
20:00 +18°C° 0 mm 3 m/s 740 mmHg 81%
21:00 +16°C° 0 mm 3 m/s 740 mmHg 85%
22:00 +14°C° 0 mm 3 m/s 741 mmHg 86%
23:00 +13°C° 0 mm 3 m/s 741 mmHg 87%

10 Juillet, Vendredi

Heure Température Précipitation Vent Pression Humidité
00:00 +13°C° 0 mm 3 m/s 741 mmHg 89%
01:00 +12°C° 0 mm 3 m/s 741 mmHg 90%
02:00 +12°C° 0 mm 3 m/s 742 mmHg 91%
03:00 +12°C° 0 mm 3 m/s 742 mmHg 93%
04:00 +12°C° 0 mm 3 m/s 742 mmHg 92%
05:00 +12°C° 0 mm 3 m/s 743 mmHg 90%
06:00 +13°C° 0 mm 3 m/s 743 mmHg 89%
07:00 +14°C° 0 mm 3 m/s 743 mmHg 85%
08:00 +17°C° 0 mm 3 m/s 744 mmHg 80%
09:00 +18°C° 0 mm 3 m/s 744 mmHg 75%
10:00 +19°C° 0 mm 3 m/s 744 mmHg 71%
11:00 +20°C° 0 mm 3 m/s 744 mmHg 66%
12:00 +21°C° 0 mm 3 m/s 744 mmHg 62%
13:00 +21°C° 0 mm 3 m/s 744 mmHg 61%
14:00 +22°C° 0 mm 3 m/s 745 mmHg 59%
15:00 +22°C° 0 mm 3 m/s 745 mmHg 58%
16:00 +23°C° 0 mm 2 m/s 745 mmHg 61%
17:00 +21°C° 0 mm 2 m/s 745 mmHg 63%
18:00 +21°C° 0 mm 2 m/s 745 mmHg 66%
19:00 +21°C° 0 mm 1 m/s 745 mmHg 69%
20:00 +19°C° 0 mm 1 m/s 745 mmHg 73%
21:00 +16°C° 0 mm 1 m/s 745 mmHg 76%
22:00 +16°C° 0 mm 1 m/s 745 mmHg 77%
23:00 +15°C° 0 mm 1 m/s 746 mmHg 77%

11 Juillet, Samedi

Heure Température Précipitation Vent Pression Humidité
00:00 +15°C° 0 mm 1 m/s 746 mmHg 78%
01:00 +14°C° 0 mm 1 m/s 746 mmHg 79%
02:00 +14°C° 0 mm 1 m/s 746 mmHg 80%
03:00 +14°C° 0 mm 1 m/s 746 mmHg 81%
04:00 +14°C° 0 mm 1 m/s 746 mmHg 82%
05:00 +15°C° 0 mm 1 m/s 746 mmHg 82%
06:00 +15°C° 0 mm 1 m/s 746 mmHg 83%
07:00 +17°C° 0 mm 2 m/s 746 mmHg 79%
08:00 +18°C° 0 mm 2 m/s 746 mmHg 75%
09:00 +20°C° 0 mm 2 m/s 746 mmHg 71%
10:00 +21°C° 0 mm 3 m/s 746 mmHg 68%
11:00 +22°C° 0 mm 3 m/s 746 mmHg 65%
12:00 +24°C° 0 mm 3 m/s 746 mmHg 62%
13:00 +24°C° 0 mm 3 m/s 746 mmHg 62%
14:00 +24°C° 0 mm 3 m/s 746 mmHg 61%
15:00 +25°C° 0 mm 3 m/s 745 mmHg 61%
16:00 +24°C° 0 mm 3 m/s 745 mmHg 64%
17:00 +24°C° 0 mm 3 m/s 745 mmHg 67%
18:00 +24°C° 0 mm 2 m/s 744 mmHg 70%
19:00 +21°C° 0 mm 2 m/s 744 mmHg 73%
20:00 +20°C° 0 mm 2 m/s 744 mmHg 76%
21:00 +18°C° 0 mm 2 m/s 744 mmHg 78%
22:00 +18°C° 0 mm 2 m/s 744 mmHg 79%
23:00 +17°C° 0 mm 2 m/s 744 mmHg 79%

12 Juillet, Dimanche

Heure Température Précipitation Vent Pression Humidité
00:00 +17°C° 0 mm 3 m/s 744 mmHg 80%
01:00 +16°C° 0 mm 3 m/s 744 mmHg 80%
02:00 +16°C° 0 mm 3 m/s 744 mmHg 81%
03:00 +16°C° 0 mm 3 m/s 743 mmHg 81%
04:00 +16°C° 0 mm 2 m/s 743 mmHg 82%
05:00 +16°C° 0 mm 2 m/s 743 mmHg 83%
06:00 +17°C° 0 mm 2 m/s 743 mmHg 83%
07:00 +18°C° 0 mm 2 m/s 743 mmHg 80%
08:00 +20°C° 0 mm 2 m/s 744 mmHg 76%
09:00 +23°C° 0 mm 2 m/s 744 mmHg 72%
10:00 +24°C° 0 mm 1 m/s 744 mmHg 70%
11:00 +24°C° 0 mm 1 m/s 743 mmHg 68%
12:00 +25°C° 0 mm 1 m/s 743 mmHg 65%
13:00 +26°C° 0.2 mm 1 m/s 743 mmHg 65%
14:00 +26°C° 0.2 mm 1 m/s 743 mmHg 65%
15:00 +26°C° 0.2 mm 2 m/s 742 mmHg 65%
16:00 +26°C° 0.3 mm 1 m/s 742 mmHg 66%
17:00 +26°C° 0.3 mm 1 m/s 742 mmHg 68%
18:00 +26°C° 0.3 mm 1 m/s 742 mmHg 69%
19:00 +24°C° 0.2 mm 1 m/s 741 mmHg 73%
20:00 +23°C° 0.2 mm 1 m/s 741 mmHg 77%
21:00 +21°C° 0.2 mm 1 m/s 741 mmHg 82%
22:00 +21°C° 0 mm 1 m/s 741 mmHg 82%
23:00 +20°C° 0 mm 1 m/s 741 mmHg 83%
Voir plus